Regional Weather Roundup
Issued by NWS

Home | Current Version | Previous Version | Graphics & Text | Print | Product List | Glossary On
Versions: 1 2 3 4 5 6 7 8 9 10 11 12 13 14 15 16 17 18 19 20 21 22 23 24 25 26 27 28 29 30 31 32 33 34 35 36 37 38 39 40 41 42 43 44 45 46 47 48 49 50
000
ASUS43 KLMK 061010
RWRKY
KENTUCKY REGIONAL WEATHER ROUNDUP
NATIONAL WEATHER SERVICE LOUISVILLE KY
600 AM EDT FRI MAY 06 2016

NOTE "FAIR" INDICATES FEW OR NO CLOUDS BELOW 12,000 FEET
WITH NO SIGNIFICANT WEATHER AND/OR OBSTRUCTIONS TO VISIBILITY.

KYZ001>023-026-027-061>063-070>075-061100-
WESTERN AND SOUTH CENTRAL KENTUCKY

CITY           SKY/WX    TMP DP  RH WIND       PRES   REMARKS
PADUCAH        CLEAR     46  43  89 W3        30.02R
HENDERSON      CLEAR     46  43  87 W3        30.00R
OWENSBORO      CLEAR     47  45  93 CALM      30.00R
HOPKINSVILLE   CLEAR     47  45  90 VRB2      29.99R
BOWLING GREEN  PTCLDY    50  45  83 NW5       29.97R
GLASGOW        CLEAR     42  42 100 CALM      29.96R
$$

KYZ024-025-028>034-038-045-046-053-061100-
NORTH CENTRAL KENTUCKY

CITY           SKY/WX    TMP DP  RH WIND       PRES   REMARKS
LOUISVILLE/SDF PTCLDY    50  42  74 N6        29.95R
LOUISVILLE/LOU CLEAR     50  43  77 NW5       29.96R
FORT KNOX      CLEAR     46  42  86 NW6       29.94R
$$

KYZ035>037-039>044-047>052-055>060-089>105-061100-
NORTHEAST KENTUCKY

CITY           SKY/WX    TMP DP  RH WIND       PRES   REMARKS
LEXINGTON      CLEAR     46  44  93 NW5       29.92R
COVINGTON      PTCLDY    50  43  77 NW9       29.92R
FRANKFORT      CLEAR     47  43  86 NW5       29.92R
$$

KYZ054-064>069-076>088-106>120-061100-
SOUTHEAST KENTUCKY

CITY           SKY/WX    TMP DP  RH WIND       PRES   REMARKS
JACKSON        CLEAR     44  41  89 NW7       29.88R
LONDON         CLEAR     42  39  89 CALM      29.90R FOG
SOMERSET       CLEAR     41  41 100 CALM      29.94R FOG
MIDDLESBORO    CLEAR     45  44  95 CALM      29.90R
MONTICELLO     SUNNY     43  42  97 CALM      29.95R
$$





USA.gov is the U.S. government's official web portal to all federal, state and local government web resources and services.